When you browse on this site, cookies collect data to enhance your experience and personalize the content and advertising you see.
Visit our Privacy Policy to learn more. By continuing to use the site, you agree to this use of cookies and data.
  • In United Kingdom
  • List of Countries
  • For 7 days
  • Water Temperature
  • Weather Map
  • Weather Widgets
  • user-avatar
    Login

    Hourly Weather Cianowice

    Today, 1 April, Wednesday

    Time Temperature Precipitation Wind Pressure Humidity
    00:00 -2°C° 0 mm 1 mps 726 mmHg 71%
    01:00 -2°C° 0 mm 1 mps 726 mmHg 71%
    02:00 -2°C° 0 mm 1 mps 726 mmHg 71%
    03:00 -2°C° 0 mm 1 mps 725 mmHg 71%
    04:00 -2°C° 0 mm 1 mps 725 mmHg 71%
    05:00 -2°C° 0 mm 1 mps 725 mmHg 68%
    06:00 -3°C° 0 mm 2 mps 725 mmHg 64%
    07:00 -3°C° 0 mm 2 mps 725 mmHg 60%
    08:00 -1°C° 0 mm 3 mps 725 mmHg 54%
    09:00 0°C° 0 mm 3 mps 725 mmHg 48%
    10:00 +1°C° 0 mm 3 mps 724 mmHg 42%
    11:00 +1°C° 0 mm 4 mps 724 mmHg 40%
    12:00 +3°C° 0 mm 4 mps 724 mmHg 38%
    13:00 +4°C° 0 mm 4 mps 723 mmHg 36%
    14:00 +4°C° 0 mm 4 mps 723 mmHg 36%
    15:00 +4°C° 0 mm 4 mps 722 mmHg 37%
    16:00 +4°C° 0 mm 4 mps 721 mmHg 37%
    17:00 +3°C° 0 mm 3 mps 721 mmHg 42%
    18:00 +1°C° 0 mm 3 mps 721 mmHg 47%
    19:00 +1°C° 0 mm 2 mps 721 mmHg 51%
    20:00 -1°C° 0 mm 2 mps 721 mmHg 54%
    21:00 -1°C° 0 mm 2 mps 721 mmHg 56%
    22:00 -2°C° 0 mm 2 mps 720 mmHg 58%
    23:00 -2°C° 0 mm 3 mps 720 mmHg 58%

    Tomorrow, 2 April, Thursday

    Time Temperature Precipitation Wind Pressure Humidity
    00:00 -2°C° 0 mm 3 mps 720 mmHg 59%
    01:00 -2°C° 0 mm 3 mps 720 mmHg 59%
    02:00 -2°C° 0 mm 3 mps 720 mmHg 59%
    03:00 -2°C° 0 mm 3 mps 719 mmHg 59%
    04:00 -2°C° 0 mm 3 mps 719 mmHg 58%
    05:00 -2°C° 0 mm 3 mps 719 mmHg 55%
    06:00 -2°C° 0 mm 4 mps 719 mmHg 52%
    07:00 -1°C° 0 mm 4 mps 720 mmHg 48%
    08:00 +1°C° 0 mm 4 mps 719 mmHg 45%
    09:00 +4°C° 0 mm 4 mps 719 mmHg 41%
    10:00 +5°C° 0 mm 5 mps 719 mmHg 38%
    11:00 +6°C° 0 mm 4 mps 719 mmHg 37%
    12:00 +7°C° 0 mm 4 mps 719 mmHg 36%
    13:00 +8°C° 0 mm 4 mps 719 mmHg 36%
    14:00 +8°C° 0 mm 4 mps 718 mmHg 37%
    15:00 +8°C° 0 mm 4 mps 717 mmHg 37%
    16:00 +8°C° 0 mm 4 mps 717 mmHg 38%
    17:00 +6°C° 0 mm 4 mps 717 mmHg 43%
    18:00 +4°C° 0 mm 4 mps 716 mmHg 48%
    19:00 +3°C° 0 mm 3 mps 716 mmHg 53%
    20:00 +2°C° 0 mm 3 mps 716 mmHg 55%
    21:00 +2°C° 0 mm 3 mps 716 mmHg 56%
    22:00 +1°C° 0 mm 3 mps 716 mmHg 58%
    23:00 +1°C° 0 mm 3 mps 716 mmHg 58%

    Day after tomorrow, 3 April, Friday

    Time Temperature Precipitation Wind Pressure Humidity
    00:00 0°C° 0 mm 3 mps 716 mmHg 59%
    01:00 0°C° 0 mm 3 mps 716 mmHg 59%
    02:00 0°C° 0 mm 3 mps 716 mmHg 59%
    03:00 0°C° 0 mm 3 mps 715 mmHg 60%
    04:00 -1°C° 0 mm 3 mps 715 mmHg 60%
    05:00 -1°C° 0 mm 4 mps 716 mmHg 59%
    06:00 0°C° 0 mm 4 mps 716 mmHg 58%
    07:00 +1°C° 0 mm 4 mps 716 mmHg 57%
    08:00 +2°C° 0 mm 5 mps 716 mmHg 55%
    09:00 +5°C° 0 mm 5 mps 717 mmHg 53%
    10:00 +5°C° 0 mm 6 mps 717 mmHg 52%
    11:00 +7°C° 0 mm 6 mps 717 mmHg 51%
    12:00 +7°C° 0 mm 6 mps 717 mmHg 51%
    13:00 +7°C° 0 mm 6 mps 718 mmHg 50%
    14:00 +7°C° 0 mm 5 mps 718 mmHg 51%
    15:00 +7°C° 0 mm 5 mps 718 mmHg 53%
    16:00 +7°C° 0 mm 5 mps 718 mmHg 54%
    17:00 +6°C° 0 mm 4 mps 718 mmHg 61%
    18:00 +5°C° 0 mm 3 mps 718 mmHg 68%
    19:00 +4°C° 0 mm 2 mps 719 mmHg 75%
    20:00 +4°C° 0 mm 2 mps 719 mmHg 78%
    21:00 +3°C° 0 mm 2 mps 720 mmHg 81%
    22:00 +4°C° 0 mm 1 mps 720 mmHg 84%
    23:00 +4°C° 0 mm 1 mps 721 mmHg 84%

    4 April, Saturday

    Time Temperature Precipitation Wind Pressure Humidity
    00:00 +3°C° 0 mm 1 mps 721 mmHg 84%
    01:00 +3°C° 0 mm 1 mps 722 mmHg 85%
    02:00 +3°C° 0 mm 1 mps 722 mmHg 86%
    03:00 +2°C° 0 mm 2 mps 722 mmHg 87%
    04:00 +2°C° 0 mm 2 mps 722 mmHg 88%
    05:00 +3°C° 0 mm 2 mps 723 mmHg 86%
    06:00 +3°C° 0 mm 2 mps 724 mmHg 84%
    07:00 +4°C° 0 mm 2 mps 724 mmHg 81%
    08:00 +4°C° 0 mm 3 mps 725 mmHg 72%
    09:00 +5°C° 0 mm 3 mps 725 mmHg 64%
    10:00 +6°C° 0 mm 4 mps 725 mmHg 55%
    11:00 +7°C° 0 mm 4 mps 726 mmHg 55%
    12:00 +7°C° 0 mm 4 mps 726 mmHg 55%
    13:00 +7°C° 0 mm 4 mps 727 mmHg 55%
    14:00 +7°C° 0 mm 4 mps 727 mmHg 54%
    15:00 +6°C° 0 mm 4 mps 727 mmHg 53%
    16:00 +6°C° 0 mm 4 mps 727 mmHg 52%
    17:00 +5°C° 0 mm 3 mps 727 mmHg 56%
    18:00 +4°C° 0 mm 3 mps 728 mmHg 60%
    19:00 +3°C° 0 mm 2 mps 728 mmHg 64%
    20:00 +3°C° 0 mm 2 mps 729 mmHg 65%
    21:00 +3°C° 0 mm 1 mps 729 mmHg 66%
    22:00 +3°C° 0 mm 1 mps 730 mmHg 67%
    23:00 +2°C° 0 mm 1 mps 730 mmHg 69%

    5 April, Sunday

    Time Temperature Precipitation Wind Pressure Humidity
    00:00 +2°C° 0 mm 1 mps 730 mmHg 71%
    01:00 +2°C° 0 mm 1 mps 731 mmHg 73%
    02:00 +1°C° 0 mm 1 mps 731 mmHg 75%
    03:00 -1°C° 0 mm 2 mps 731 mmHg 78%
    04:00 -2°C° 0 mm 2 mps 731 mmHg 81%
    05:00 -1°C° 0 mm 3 mps 731 mmHg 79%
    06:00 0°C° 0 mm 3 mps 732 mmHg 77%
    07:00 0°C° 0 mm 4 mps 732 mmHg 74%
    08:00 +1°C° 0 mm 4 mps 732 mmHg 68%
    09:00 +3°C° 0 mm 5 mps 732 mmHg 62%
    10:00 +4°C° 0 mm 6 mps 732 mmHg 56%
    11:00 +5°C° 0 mm 6 mps 732 mmHg 53%
    12:00 +7°C° 0 mm 6 mps 732 mmHg 50%
    13:00 +8°C° 0 mm 7 mps 732 mmHg 47%
    14:00 +8°C° 0 mm 7 mps 732 mmHg 47%
    15:00 +8°C° 0 mm 7 mps 731 mmHg 47%
    16:00 +8°C° 0 mm 7 mps 731 mmHg 47%
    17:00 +7°C° 0 mm 6 mps 731 mmHg 52%
    18:00 +4°C° 0 mm 6 mps 731 mmHg 56%
    19:00 +3°C° 0 mm 5 mps 731 mmHg 60%
    20:00 +2°C° 0 mm 5 mps 731 mmHg 60%
    21:00 +2°C° 0 mm 6 mps 731 mmHg 59%
    22:00 +1°C° 0 mm 6 mps 731 mmHg 59%
    23:00 +1°C° 0 mm 5 mps 731 mmHg 62%

    6 April, Monday

    Time Temperature Precipitation Wind Pressure Humidity
    00:00 0°C° 0 mm 5 mps 731 mmHg 64%
    01:00 -1°C° 0 mm 4 mps 731 mmHg 67%
    02:00 -1°C° 0 mm 4 mps 731 mmHg 70%
    03:00 0°C° 0 mm 3 mps 731 mmHg 73%
    04:00 -1°C° 0 mm 3 mps 731 mmHg 76%
    05:00 +1°C° 0 mm 2 mps 731 mmHg 74%
    06:00 +2°C° 0 mm 2 mps 731 mmHg 72%
    07:00 +4°C° 0 mm 2 mps 731 mmHg 71%
    08:00 +6°C° 0 mm 2 mps 732 mmHg 63%
    09:00 +9°C° 0 mm 3 mps 732 mmHg 55%
    10:00 +11°C° 0 mm 3 mps 732 mmHg 47%
    11:00 +12°C° 0 mm 3 mps 732 mmHg 42%
    12:00 +13°C° 0 mm 4 mps 732 mmHg 38%
    13:00 +14°C° 0 mm 4 mps 732 mmHg 34%
    14:00 +14°C° 0 mm 4 mps 732 mmHg 33%
    15:00 +14°C° 0 mm 4 mps 732 mmHg 32%
    16:00 +14°C° 0 mm 4 mps 731 mmHg 31%
    17:00 +12°C° 0 mm 4 mps 731 mmHg 36%
    18:00 +10°C° 0 mm 3 mps 731 mmHg 42%
    19:00 +8°C° 0 mm 3 mps 731 mmHg 47%
    20:00 +7°C° 0 mm 3 mps 731 mmHg 49%
    21:00 +6°C° 0 mm 2 mps 731 mmHg 50%
    22:00 +6°C° 0 mm 2 mps 731 mmHg 52%
    23:00 +5°C° 0 mm 2 mps 731 mmHg 53%
    Show more